TimeCST,TemperatureF,Dew PointF,Humidity,Sea Level PressureIn,VisibilityMPH,Wind Direction,Wind SpeedMPH,Gust SpeedMPH,PrecipitationIn,Events,Conditions,WindDirDegrees,DateUTC
12:15 AM,18.3,9.7,69,30.01,10.0,SE,3.5,-,N/A,,Clear,140,2014-02-15 06:15:00
12:35 AM,19.0,9.5,66,30.02,10.0,SE,4.6,-,N/A,,Clear,140,2014-02-15 06:35:00
12:55 AM,18.9,10.2,69,30.02,10.0,SSE,4.6,-,N/A,,Clear,160,2014-02-15 06:55:00
1:15 AM,19.0,10.6,70,30.01,10.0,SE,6.9,-,N/A,,Clear,140,2014-02-15 07:15:00
1:35 AM,19.4,11.3,71,30.01,10.0,SE,5.8,-,N/A,,Clear,140,2014-02-15 07:35:00
1:55 AM,19.9,11.3,69,30.01,10.0,SSE,5.8,-,N/A,,Scattered Clouds,150,2014-02-15 07:55:00
2:15 AM,19.9,11.3,69,29.99,10.0,SSE,6.9,-,N/A,,Scattered Clouds,160,2014-02-15 08:15:00
2:35 AM,20.3,12.2,71,29.98,10.0,South,10.4,-,N/A,,Scattered Clouds,170,2014-02-15 08:35:00
2:55 AM,20.5,11.3,68,29.98,10.0,South,10.4,-,N/A,,Scattered Clouds,170,2014-02-15 08:55:00
3:15 AM,20.5,11.3,68,29.97,10.0,SSE,10.4,-,N/A,,Scattered Clouds,150,2014-02-15 09:15:00
3:35 AM,20.5,11.3,68,29.95,10.0,SSE,12.7,-,N/A,,Scattered Clouds,150,2014-02-15 09:35:00
3:55 AM,20.3,11.8,70,29.93,10.0,SSE,12.7,-,N/A,,Overcast,150,2014-02-15 09:55:00
4:15 AM,20.8,12.2,69,29.92,10.0,SSE,12.7,-,N/A,,Overcast,160,2014-02-15 10:15:00
4:35 AM,21.7,12.7,68,29.92,10.0,South,16.1,-,N/A,,Overcast,180,2014-02-15 10:35:00
4:55 AM,22.1,13.5,69,29.92,10.0,South,16.1,-,N/A,,Overcast,170,2014-02-15 10:55:00
5:15 AM,22.6,13.8,69,29.90,10.0,SSE,13.8,-,N/A,,Overcast,160,2014-02-15 11:15:00
5:35 AM,23.0,14.5,70,29.89,10.0,South,17.3,-,N/A,,Overcast,170,2014-02-15 11:35:00
5:55 AM,23.4,15.1,71,29.89,10.0,South,16.1,-,N/A,,Overcast,170,2014-02-15 11:55:00
6:15 AM,23.9,15.8,71,29.89,10.0,SSE,15.0,-,N/A,,Overcast,160,2014-02-15 12:15:00
6:35 AM,23.7,15.6,71,29.88,10.0,SSE,15.0,-,N/A,,Overcast,160,2014-02-15 12:35:00
6:55 AM,23.9,15.8,71,29.87,10.0,South,15.0,-,N/A,,Overcast,170,2014-02-15 12:55:00
7:15 AM,24.3,15.8,70,29.85,10.0,SSE,15.0,19.6,N/A,,Overcast,160,2014-02-15 13:15:00
7:35 AM,24.4,16.5,72,29.86,10.0,SSE,15.0,-,N/A,,Overcast,160,2014-02-15 13:35:00
7:55 AM,24.6,16.9,72,29.86,10.0,SSE,11.5,19.6,N/A,,Overcast,160,2014-02-15 13:55:00
8:15 AM,24.8,17.6,74,29.86,10.0,SSE,10.4,-,N/A,,Overcast,150,2014-02-15 14:15:00
8:35 AM,25.5,18.0,73,29.87,10.0,SSE,11.5,-,N/A,,Overcast,150,2014-02-15 14:35:00
8:55 AM,25.9,18.1,73,29.89,10.0,South,9.2,16.1,N/A,,Overcast,180,2014-02-15 14:55:00
9:15 AM,26.2,18.3,72,29.88,10.0,SSE,12.7,-,N/A,,Overcast,160,2014-02-15 15:15:00
9:35 AM,26.6,19.4,74,29.88,4.0,South,13.8,-,N/A,Snow,Light Snow,170,2014-02-15 15:35:00
9:55 AM,26.4,21.4,81,29.86,1.2,South,17.3,-,N/A,Snow,Light Snow,170,2014-02-15 15:55:00
10:15 AM,27.3,22.1,81,29.84,5.0,South,18.4,-,N/A,Snow,Light Snow,170,2014-02-15 16:15:00
10:35 AM,27.9,22.5,80,29.83,7.0,South,20.7,24.2,N/A,Snow,Light Snow,170,2014-02-15 16:35:00
10:55 AM,28.6,23.2,80,29.84,10.0,South,17.3,-,N/A,,Clear,180,2014-02-15 16:55:00
11:15 AM,30.2,23.4,76,29.83,10.0,South,18.4,24.2,N/A,,Scattered Clouds,180,2014-02-15 17:15:00
11:35 AM,31.8,23.9,73,29.82,10.0,South,19.6,-,N/A,,Scattered Clouds,180,2014-02-15 17:35:00
11:55 AM,33.6,25.0,71,29.81,10.0,SSW,19.6,25.3,N/A,,Mostly Cloudy,200,2014-02-15 17:55:00
12:15 PM,35.4,25.7,68,29.81,10.0,SSW,16.1,-,N/A,,Overcast,200,2014-02-15 18:15:00
12:35 PM,37.0,26.1,65,29.81,10.0,South,15.0,21.9,N/A,,Scattered Clouds,190,2014-02-15 18:35:00
12:55 PM,39.9,27.7,62,29.79,10.0,SSW,18.4,-,N/A,,Clear,210,2014-02-15 18:55:00
1:15 PM,40.8,28.0,60,29.78,10.0,SSW,17.3,21.9,N/A,,Clear,200,2014-02-15 19:15:00
1:35 PM,42.4,28.8,58,29.78,10.0,SW,16.1,24.2,N/A,,Clear,220,2014-02-15 19:35:00
1:55 PM,44.4,29.8,57,29.77,10.0,SSW,16.1,20.7,N/A,,Clear,200,2014-02-15 19:55:00
2:15 PM,45.7,30.2,55,29.77,10.0,SSW,13.8,-,N/A,,Clear,210,2014-02-15 20:15:00
2:35 PM,47.5,30.9,53,29.76,10.0,SSW,11.5,-,N/A,,Clear,200,2014-02-15 20:35:00
2:55 PM,50.2,31.8,49,29.75,10.0,SSW,11.5,-,N/A,,Clear,200,2014-02-15 20:55:00
3:15 PM,52.3,32.0,46,29.74,10.0,SSW,13.8,-,N/A,,Clear,200,2014-02-15 21:15:00
3:35 PM,52.9,32.0,45,29.75,10.0,SSW,10.4,-,N/A,,Scattered Clouds,210,2014-02-15 21:35:00
3:55 PM,56.8,23.7,28,29.76,10.0,WNW,19.6,32.2,N/A,,Scattered Clouds,300,2014-02-15 21:55:00
4:15 PM,55.9,23.4,28,29.76,10.0,NW,23.0,35.7,N/A,,Scattered Clouds,310,2014-02-15 22:15:00
4:35 PM,55.0,25.2,32,29.78,10.0,NW,27.6,36.8,N/A,,Scattered Clouds,310,2014-02-15 22:35:00
4:55 PM,53.1,28.4,39,29.80,10.0,NW,28.8,40.3,N/A,,Clear,320,2014-02-15 22:55:00
5:15 PM,50.9,28.9,43,29.82,10.0,NW,33.4,40.3,N/A,,Clear,310,2014-02-15 23:15:00
5:35 PM,49.1,28.6,45,29.85,10.0,NW,27.6,35.7,N/A,,Clear,310,2014-02-15 23:35:00
5:55 PM,46.9,28.4,49,29.88,10.0,NW,21.9,35.7,N/A,,Clear,320,2014-02-15 23:55:00
6:15 PM,45.5,28.9,52,29.90,10.0,NW,20.7,31.1,N/A,,Clear,320,2014-02-16 00:15:00
6:35 PM,44.2,29.7,57,29.91,10.0,NW,19.6,24.2,N/A,,Clear,320,2014-02-16 00:35:00
6:55 PM,42.6,29.8,61,29.93,10.0,NW,17.3,21.9,N/A,,Clear,320,2014-02-16 00:55:00
7:15 PM,42.1,29.8,62,29.94,10.0,NW,19.6,24.2,N/A,,Clear,320,2014-02-16 01:15:00
7:35 PM,41.0,29.7,64,29.95,10.0,NW,19.6,25.3,N/A,,Clear,320,2014-02-16 01:35:00
7:55 PM,41.2,30.2,65,29.96,10.0,NNW,18.4,31.1,N/A,,Clear,330,2014-02-16 01:55:00
8:15 PM,38.7,29.8,71,29.97,10.0,North,18.4,25.3,N/A,,Clear,350,2014-02-16 02:15:00
8:35 PM,35.8,29.1,77,29.97,10.0,North,18.4,24.2,N/A,,Clear,350,2014-02-16 02:35:00
8:55 PM,34.2,28.4,79,29.99,10.0,NNW,13.8,-,N/A,,Scattered Clouds,340,2014-02-16 02:55:00
9:15 PM,34.3,28.4,79,30.00,10.0,North,10.4,-,N/A,,Overcast,350,2014-02-16 03:15:00
9:35 PM,34.0,28.4,80,30.00,10.0,North,12.7,17.3,N/A,,Overcast,350,2014-02-16 03:35:00
9:55 PM,34.2,28.4,79,30.01,10.0,NNW,13.8,23.0,N/A,,Mostly Cloudy,340,2014-02-16 03:55:00
10:15 PM,34.0,27.9,78,30.02,10.0,NNW,16.1,19.6,N/A,,Scattered Clouds,330,2014-02-16 04:15:00
10:35 PM,32.9,27.1,79,30.03,10.0,North,12.7,-,N/A,,Scattered Clouds,350,2014-02-16 04:35:00
10:55 PM,32.0,26.4,80,30.04,10.0,NNW,11.5,18.4,N/A,,Mostly Cloudy,330,2014-02-16 04:55:00
11:15 PM,32.0,26.2,79,30.03,10.0,North,13.8,18.4,N/A,,Overcast,350,2014-02-16 05:15:00
11:35 PM,31.6,25.9,79,30.03,10.0,NNW,12.7,-,N/A,,Overcast,340,2014-02-16 05:35:00
11:55 PM,31.1,25.7,80,30.03,10.0,NNW,18.4,24.2,N/A,,Overcast,340,2014-02-16 05:55:00